VLG1516 LFMN-LEBL

Flight info

Callsign VLG1516
Flight time 0h 56m
Altitude 28000
Route EPOLO DCT SOFFY DCT NILDU DCT BISBA
Aircraft A320/M-SDE3FGHIRWY/LB1

Departure

Time 2026-05-07 17:33
Airport Nice-Côte d'Azur Airport (LFMN)

Arrival

Time 2026-05-07 18:29
Airport Josep Tarradellas Barcelona-El Prat Airport (LEBL)
Time Latitude Longitude Altitude Speed Heading
2026-05-07 17:26 43.66430 7.21391 19 ft 0 kts 356°
2026-05-07 17:27 43.66418 7.21392 19 ft 2 kts 356°
2026-05-07 17:28 43.66401 7.21394 18 ft 2 kts 355°
2026-05-07 17:28 43.66385 7.21396 19 ft 2 kts 354°
2026-05-07 17:28 43.66374 7.21397 18 ft 2 kts 353°
2026-05-07 17:28 43.66362 7.21416 22 ft 2 kts 258°
2026-05-07 17:29 43.66363 7.21428 18 ft 1 kts 258°
2026-05-07 17:29 43.66364 7.21433 18 ft 0 kts 258°
2026-05-07 17:30 43.66362 7.21430 18 ft 1 kts 235°
2026-05-07 17:30 43.66325 7.21388 17 ft 12 kts 220°
2026-05-07 17:30 43.66246 7.21290 16 ft 18 kts 228°
2026-05-07 17:31 43.66147 7.21155 17 ft 22 kts 224°
2026-05-07 17:31 43.66023 7.20987 19 ft 27 kts 225°
2026-05-07 17:31 43.65877 7.20791 20 ft 32 kts 222°
2026-05-07 17:31 43.65708 7.20562 17 ft 37 kts 224°
2026-05-07 17:32 43.65536 7.20329 16 ft 34 kts 225°
2026-05-07 17:32 43.65388 7.20182 18 ft 23 kts 158°
2026-05-07 17:32 43.65266 7.20311 17 ft 23 kts 130°
2026-05-07 17:32 43.65241 7.20487 21 ft 18 kts 41°
2026-05-07 17:33 43.65433 7.20757 19 ft 71 kts 44°
2026-05-07 17:33 43.65956 7.21470 19 ft 142 kts 45°
2026-05-07 17:33 43.66768 7.22591 321 ft 177 kts 46°
2026-05-07 17:33 43.67401 7.24013 1083 ft 176 kts 82°
2026-05-07 17:34 43.67215 7.25652 1900 ft 177 kts 121°
2026-05-07 17:34 43.66300 7.26755 2525 ft 188 kts 162°
2026-05-07 17:34 43.64958 7.26786 3155 ft 192 kts 192°
2026-05-07 17:34 43.63608 7.26440 3447 ft 205 kts 188°
2026-05-07 17:35 43.62181 7.26781 3815 ft 219 kts 148°
2026-05-07 17:35 43.61171 7.28372 4372 ft 225 kts 118°
2026-05-07 17:35 43.60549 7.30363 5087 ft 228 kts 110°
2026-05-07 17:35 43.60035 7.32447 5794 ft 230 kts 109°
2026-05-07 17:36 43.59516 7.34548 6504 ft 234 kts 113°
2026-05-07 17:36 43.58517 7.36346 6978 ft 244 kts 148°
2026-05-07 17:36 43.56898 7.37092 7486 ft 254 kts 180°
2026-05-07 17:36 43.55166 7.36511 8005 ft 265 kts 211°
2026-05-07 17:37 43.53734 7.34825 8513 ft 278 kts 225°
2026-05-07 17:37 43.52349 7.32920 9165 ft 285 kts 225°
2026-05-07 17:37 43.50935 7.30973 9920 ft 288 kts 225°
2026-05-07 17:37 43.49590 7.28880 10430 ft 300 kts 238°
2026-05-07 17:38 43.48767 7.26177 10779 ft 314 kts 253°
2026-05-07 17:38 43.48127 7.23221 11074 ft 331 kts 253°
2026-05-07 17:38 43.47461 7.20110 11341 ft 347 kts 253°
2026-05-07 17:38 43.46766 7.16856 11654 ft 360 kts 253°
2026-05-07 17:39 43.46056 7.13522 12240 ft 365 kts 253°
2026-05-07 17:39 43.45341 7.10163 12883 ft 367 kts 253°
2026-05-07 17:39 43.44614 7.06776 13534 ft 370 kts 252°
2026-05-07 17:39 43.43869 7.03331 14142 ft 373 kts 252°
2026-05-07 17:40 43.43124 6.99901 14713 ft 375 kts 252°
2026-05-07 17:40 43.42372 6.96452 15272 ft 377 kts 252°
2026-05-07 17:40 43.41619 6.92988 15837 ft 379 kts 252°
2026-05-07 17:40 43.40863 6.89502 16409 ft 382 kts 252°
2026-05-07 17:41 43.40102 6.85996 16988 ft 384 kts 252°
2026-05-07 17:41 43.39335 6.82464 17581 ft 386 kts 252°
2026-05-07 17:41 43.38559 6.78917 18179 ft 389 kts 252°
2026-05-07 17:41 43.37771 6.75329 18589 ft 396 kts 252°
2026-05-07 17:42 43.36971 6.71698 18887 ft 403 kts 252°
2026-05-07 17:42 43.36149 6.67971 19284 ft 407 kts 252°
2026-05-07 17:42 43.35324 6.64230 19771 ft 409 kts 252°
2026-05-07 17:42 43.34499 6.60482 20261 ft 411 kts 252°
2026-05-07 17:43 43.33673 6.56720 20723 ft 412 kts 252°
2026-05-07 17:43 43.32843 6.52944 21156 ft 413 kts 252°
2026-05-07 17:43 43.32008 6.49164 21557 ft 415 kts 252°
2026-05-07 17:43 43.31167 6.45366 21954 ft 416 kts 252°
2026-05-07 17:44 43.30321 6.41554 22328 ft 418 kts 252°
2026-05-07 17:44 43.29469 6.37730 22717 ft 419 kts 252°
2026-05-07 17:44 43.28612 6.33899 23077 ft 421 kts 252°
2026-05-07 17:44 43.27749 6.30050 23441 ft 422 kts 252°
2026-05-07 17:45 43.26883 6.26193 23752 ft 424 kts 252°
2026-05-07 17:45 43.26016 6.22324 24066 ft 425 kts 252°
2026-05-07 17:45 43.25147 6.18445 24405 ft 425 kts 252°
2026-05-07 17:45 43.24278 6.14574 24730 ft 425 kts 252°
2026-05-07 17:46 43.23406 6.10696 25047 ft 426 kts 252°
2026-05-07 17:46 43.22520 6.06764 25362 ft 426 kts 252°
2026-05-07 17:46 43.21644 6.02887 25667 ft 426 kts 252°
2026-05-07 17:46 43.20765 5.99008 25966 ft 427 kts 252°
2026-05-07 17:47 43.19882 5.95124 26252 ft 427 kts 251°
2026-05-07 17:47 43.18995 5.91228 26392 ft 430 kts 251°
2026-05-07 17:47 43.18097 5.87296 26524 ft 432 kts 251°
2026-05-07 17:47 43.17197 5.83366 26687 ft 434 kts 251°
2026-05-07 17:48 43.16294 5.79414 26854 ft 434 kts 252°
2026-05-07 17:48 43.15394 5.75473 27075 ft 434 kts 251°
2026-05-07 17:48 43.14492 5.71539 27332 ft 432 kts 251°
2026-05-07 17:48 43.13591 5.67627 27594 ft 430 kts 251°
2026-05-07 17:49 43.12692 5.63728 27863 ft 429 kts 251°
2026-05-07 17:49 43.11798 5.59851 27965 ft 427 kts 251°
2026-05-07 17:49 43.10904 5.55985 27972 ft 426 kts 251°
2026-05-07 17:49 43.10007 5.52110 27971 ft 426 kts 251°
2026-05-07 17:50 43.09112 5.48250 27973 ft 427 kts 251°
2026-05-07 17:50 43.08215 5.44375 27976 ft 427 kts 251°
2026-05-07 17:50 43.07316 5.40507 27976 ft 427 kts 251°
2026-05-07 17:50 43.06413 5.36635 27976 ft 427 kts 251°
2026-05-07 17:51 43.05507 5.32762 27974 ft 428 kts 251°
2026-05-07 17:51 43.04600 5.28890 27976 ft 428 kts 251°
2026-05-07 17:51 43.03692 5.25013 27976 ft 428 kts 251°
2026-05-07 17:51 43.02776 5.21150 27975 ft 428 kts 249°
2026-05-07 17:52 43.01548 5.17456 27974 ft 427 kts 240°
2026-05-07 17:52 42.99892 5.14104 27971 ft 427 kts 233°
2026-05-07 17:52 42.98097 5.10866 27974 ft 427 kts 233°
2026-05-07 17:52 42.96306 5.07631 27977 ft 427 kts 233°
2026-05-07 17:53 42.94518 5.04395 27979 ft 427 kts 233°
2026-05-07 17:53 42.92729 5.01153 27979 ft 427 kts 233°
2026-05-07 17:53 42.90940 4.97910 27982 ft 427 kts 233°
2026-05-07 17:53 42.89153 4.94670 27980 ft 428 kts 233°
2026-05-07 17:54 42.87362 4.91430 27978 ft 428 kts 233°
2026-05-07 17:54 42.85544 4.88149 27983 ft 428 kts 233°
2026-05-07 17:54 42.83748 4.84919 27978 ft 428 kts 233°
2026-05-07 17:54 42.81947 4.81690 27979 ft 428 kts 233°
2026-05-07 17:55 42.80140 4.78455 27977 ft 429 kts 232°
2026-05-07 17:55 42.78336 4.75232 27977 ft 429 kts 233°
2026-05-07 17:55 42.76531 4.71998 27982 ft 429 kts 233°
2026-05-07 17:55 42.74732 4.68769 27981 ft 429 kts 232°
2026-05-07 17:56 42.72927 4.65536 27982 ft 429 kts 232°
2026-05-07 17:56 42.71122 4.62310 27980 ft 429 kts 232°
2026-05-07 17:56 42.69311 4.59078 27979 ft 429 kts 232°
2026-05-07 17:56 42.67501 4.55854 27984 ft 429 kts 232°
2026-05-07 17:57 42.65686 4.52625 27984 ft 430 kts 232°
2026-05-07 17:57 42.64488 4.50497 27985 ft 429 kts 232°
2026-05-07 17:57 42.62062 4.46185 27985 ft 429 kts 232°
2026-05-07 17:57 42.60246 4.42957 27983 ft 429 kts 232°
2026-05-07 17:58 42.58431 4.39735 27973 ft 429 kts 232°
2026-05-07 17:58 42.56618 4.36515 27978 ft 430 kts 232°
2026-05-07 17:58 42.54802 4.33297 27972 ft 430 kts 232°
2026-05-07 17:58 42.52977 4.30078 27972 ft 430 kts 232°
2026-05-07 17:59 42.51152 4.26866 27978 ft 430 kts 232°
2026-05-07 17:59 42.49324 4.23654 27974 ft 430 kts 232°
2026-05-07 17:59 42.47498 4.20447 27979 ft 430 kts 232°
2026-05-07 17:59 42.45673 4.17234 27978 ft 431 kts 232°
2026-05-07 18:00 42.43849 4.14016 27988 ft 431 kts 232°
2026-05-07 18:00 42.42026 4.10806 27982 ft 431 kts 232°
2026-05-07 18:00 42.40195 4.07590 27981 ft 431 kts 232°
2026-05-07 18:00 42.38337 4.04333 27984 ft 431 kts 232°
2026-05-07 18:01 42.36528 4.01170 27989 ft 431 kts 232°
2026-05-07 18:01 42.34691 3.97958 27986 ft 431 kts 232°
2026-05-07 18:01 42.33455 3.95797 27982 ft 431 kts 231°
2026-05-07 18:01 42.31000 3.91511 27981 ft 431 kts 231°
2026-05-07 18:02 42.27938 3.86187 27976 ft 431 kts 231°
2026-05-07 18:02 42.26044 3.83053 27977 ft 431 kts 226°
2026-05-07 18:02 42.23850 3.80298 27974 ft 427 kts 221°
2026-05-07 18:03 42.21640 3.77727 27983 ft 417 kts 221°
2026-05-07 18:03 42.19444 3.75172 27977 ft 417 kts 221°
2026-05-07 18:03 42.17262 3.72633 27979 ft 417 kts 221°
2026-05-07 18:03 42.15068 3.70079 27979 ft 417 kts 221°
2026-05-07 18:04 42.12876 3.67521 27973 ft 417 kts 221°
2026-05-07 18:04 42.10714 3.64946 27742 ft 412 kts 224°
2026-05-07 18:04 42.08836 3.62029 26900 ft 411 kts 234°
2026-05-07 18:04 42.07385 3.58732 26443 ft 414 kts 243°
2026-05-07 18:05 42.06206 3.55175 25965 ft 416 kts 244°
2026-05-07 18:05 42.05031 3.51607 25456 ft 418 kts 244°
2026-05-07 18:05 42.03826 3.47985 24964 ft 420 kts 244°
2026-05-07 18:05 42.02648 3.44463 24469 ft 421 kts 244°
2026-05-07 18:06 42.01423 3.40806 23967 ft 420 kts 244°
2026-05-07 18:06 42.00241 3.37278 23460 ft 418 kts 244°
2026-05-07 18:06 41.99036 3.33671 22921 ft 417 kts 244°
2026-05-07 18:06 41.97852 3.30118 22434 ft 416 kts 245°
2026-05-07 18:07 41.96670 3.26569 21945 ft 415 kts 245°
2026-05-07 18:07 41.95491 3.23041 21455 ft 414 kts 245°
2026-05-07 18:07 41.94300 3.19525 20970 ft 412 kts 244°
2026-05-07 18:07 41.93045 3.16075 20482 ft 411 kts 243°
2026-05-07 18:08 41.91736 3.12665 20012 ft 411 kts 242°
2026-05-07 18:08 41.90401 3.09277 19509 ft 409 kts 242°
2026-05-07 18:08 41.89073 3.05915 19034 ft 409 kts 242°
2026-05-07 18:08 41.87748 3.02535 18554 ft 408 kts 243°
2026-05-07 18:09 41.86437 2.99165 18043 ft 407 kts 243°
2026-05-07 18:09 41.85135 2.95799 17550 ft 405 kts 243°
2026-05-07 18:09 41.83843 2.92448 17064 ft 403 kts 243°
2026-05-07 18:09 41.82562 2.89116 16597 ft 401 kts 243°
2026-05-07 18:10 41.81286 2.85799 16128 ft 400 kts 243°
2026-05-07 18:10 41.80014 2.82506 15645 ft 397 kts 243°
2026-05-07 18:10 41.78741 2.79223 15187 ft 395 kts 243°
2026-05-07 18:10 41.77476 2.75969 14724 ft 393 kts 243°
2026-05-07 18:11 41.76219 2.72731 14265 ft 391 kts 243°
2026-05-07 18:11 41.75377 2.70564 13954 ft 390 kts 243°
2026-05-07 18:11 41.73721 2.66310 13312 ft 388 kts 242°
2026-05-07 18:11 41.72475 2.63112 12855 ft 387 kts 243°
2026-05-07 18:12 41.71235 2.59928 12406 ft 385 kts 243°
2026-05-07 18:12 41.70004 2.56768 11947 ft 383 kts 242°
2026-05-07 18:12 41.68773 2.53612 11504 ft 381 kts 242°
2026-05-07 18:12 41.67534 2.50442 11045 ft 379 kts 242°
2026-05-07 18:13 41.66344 2.47405 10828 ft 365 kts 242°
2026-05-07 18:13 41.65180 2.44440 10700 ft 347 kts 242°
2026-05-07 18:13 41.64078 2.41640 10580 ft 332 kts 242°
2026-05-07 18:13 41.63023 2.38961 10461 ft 319 kts 242°
2026-05-07 18:14 41.62012 2.36388 10338 ft 307 kts 242°
2026-05-07 18:14 41.61036 2.33908 10191 ft 297 kts 242°
2026-05-07 18:14 41.60085 2.31491 10020 ft 290 kts 242°
2026-05-07 18:14 41.59143 2.29099 9815 ft 292 kts 242°
2026-05-07 18:15 41.58203 2.26712 9502 ft 289 kts 242°
2026-05-07 18:15 41.57269 2.24337 9218 ft 289 kts 242°
2026-05-07 18:15 41.56348 2.22000 8936 ft 288 kts 242°
2026-05-07 18:15 41.55414 2.19638 8670 ft 287 kts 242°
2026-05-07 18:16 41.54499 2.17330 8398 ft 287 kts 242°
2026-05-07 18:16 41.53651 2.15186 8142 ft 286 kts 242°
2026-05-07 18:16 41.52731 2.12885 7872 ft 285 kts 238°
2026-05-07 18:16 41.51523 2.10810 7600 ft 283 kts 223°
2026-05-07 18:17 41.49969 2.09225 7333 ft 281 kts 211°
2026-05-07 18:17 41.48319 2.07821 7065 ft 281 kts 211°
2026-05-07 18:17 41.46679 2.06410 6786 ft 280 kts 212°
2026-05-07 18:17 41.45046 2.04997 6521 ft 280 kts 212°
2026-05-07 18:18 41.43422 2.03590 6245 ft 278 kts 211°
2026-05-07 18:18 41.41802 2.02189 5972 ft 277 kts 211°
2026-05-07 18:18 41.40190 2.00799 5706 ft 275 kts 211°
2026-05-07 18:18 41.38586 1.99418 5442 ft 274 kts 211°
2026-05-07 18:19 41.36990 1.98047 5209 ft 272 kts 211°
2026-05-07 18:19 41.35408 1.96689 4945 ft 270 kts 211°
2026-05-07 18:19 41.33811 1.95320 4677 ft 269 kts 211°
2026-05-07 18:19 41.32239 1.93970 4406 ft 268 kts 211°
2026-05-07 18:20 41.30700 1.92646 4167 ft 267 kts 211°
2026-05-07 18:20 41.29142 1.91305 3941 ft 264 kts 211°
2026-05-07 18:20 41.27617 1.89993 3854 ft 253 kts 211°
2026-05-07 18:20 41.26166 1.88748 3747 ft 243 kts 211°
2026-05-07 18:21 41.24774 1.87555 3646 ft 232 kts 211°
2026-05-07 18:21 41.23454 1.86425 3548 ft 221 kts 211°
2026-05-07 18:21 41.22195 1.85348 3449 ft 210 kts 211°
2026-05-07 18:21 41.21060 1.84375 3391 ft 205 kts 211°
2026-05-07 18:22 41.19858 1.83344 3340 ft 205 kts 211°
2026-05-07 18:22 41.19069 1.82666 3314 ft 205 kts 211°
2026-05-07 18:22 41.17470 1.81294 3246 ft 204 kts 211°
2026-05-07 18:22 41.16275 1.80272 3211 ft 204 kts 208°
2026-05-07 18:23 41.14945 1.79803 3172 ft 199 kts 170°
2026-05-07 18:23 41.13963 1.80252 3140 ft 195 kts 142°
2026-05-07 18:23 41.13141 1.81650 3093 ft 192 kts 106°
2026-05-07 18:23 41.13257 1.83369 3056 ft 194 kts 58°
2026-05-07 18:24 41.14277 1.84543 2988 ft 199 kts 31°
2026-05-07 18:24 41.15430 1.85555 2949 ft 198 kts 37°
2026-05-07 18:24 41.16553 1.86604 3010 ft 198 kts 37°
2026-05-07 18:24 41.17684 1.87664 3011 ft 198 kts 37°
2026-05-07 18:25 41.18809 1.88719 3010 ft 198 kts 37°
2026-05-07 18:25 41.19939 1.89780 2993 ft 199 kts 37°
2026-05-07 18:25 41.21066 1.90838 2845 ft 198 kts 37°
2026-05-07 18:25 41.22188 1.91894 2642 ft 197 kts 37°
2026-05-07 18:26 41.23293 1.92933 2435 ft 192 kts 37°
2026-05-07 18:26 41.24354 1.93954 2191 ft 182 kts 43°
2026-05-07 18:26 41.25140 1.95157 1995 ft 160 kts 58°
2026-05-07 18:26 41.25674 1.96360 1831 ft 142 kts 64°
2026-05-07 18:27 41.26115 1.97507 1638 ft 139 kts 65°
2026-05-07 18:27 41.26534 1.98663 1441 ft 139 kts 66°
2026-05-07 18:27 41.26939 1.99810 1261 ft 136 kts 66°
2026-05-07 18:27 41.27203 2.00568 1121 ft 136 kts 66°
2026-05-07 18:28 41.27731 2.02095 878 ft 136 kts 66°
2026-05-07 18:28 41.28125 2.03235 691 ft 136 kts 67°
2026-05-07 18:28 41.28510 2.04379 502 ft 136 kts 68°
2026-05-07 18:28 41.28908 2.05518 287 ft 135 kts 67°
2026-05-07 18:29 41.29292 2.06652 138 ft 133 kts 66°
2026-05-07 18:29 41.29681 2.07766 27 ft 133 kts 66°
2026-05-07 18:29 41.29979 2.08638 23 ft 91 kts 66°
2026-05-07 18:29 41.30132 2.09112 17 ft 46 kts 77°
2026-05-07 18:30 41.30123 2.09399 17 ft 18 kts 114°
2026-05-07 18:30 41.30073 2.09427 16 ft 7 kts 206°
2026-05-07 18:30 41.30029 2.09331 17 ft 17 kts 259°
2026-05-07 18:30 41.29984 2.09193 17 ft 21 kts 242°
2026-05-07 18:31 41.29919 2.09009 19 ft 23 kts 245°
2026-05-07 18:31 41.29851 2.08812 19 ft 25 kts 246°
2026-05-07 18:31 41.29777 2.08590 17 ft 28 kts 244°
2026-05-07 18:31 41.29695 2.08359 17 ft 28 kts 245°
2026-05-07 18:32 41.29612 2.08123 18 ft 26 kts 242°
2026-05-07 18:32 41.29508 2.08103 16 ft 17 kts 155°
2026-05-07 18:32 41.29428 2.08124 19 ft 9 kts 227°
2026-05-07 18:32 41.29413 2.08080 17 ft 5 kts 244°
2026-05-07 18:33 41.29400 2.08045 19 ft 8 kts 245°
2026-05-07 18:33 41.29372 2.07962 17 ft 11 kts 245°
2026-05-07 18:33 41.29366 2.07948 17 ft 0 kts 245°